Flag for U.S.A. Weather past 2 weeks in Grand Junction, Colorado, U.S.A.

Now
61 °F

Clear.


Feels Like: 61 °F
Forecast: 64 / 88 °F
Wind: 8 mph from Southeast

Location: Walker Field

Current Time: Jul 6, 2015 at 5:50:55 AM

Latest Report: Jul 6, 2015 at 4:53 AM


Visibility: 10 mi

Pressure: 29.93 "Hg (25.38 "Hg at 1398m altitude)

Humidity: 90%

Dew point: 58 °F

Location of Grand JunctionLocation

Historic Weather in Grand Junction — Graph

°F

Grand Junction temperature yesterday

Maximum temperature yesterday: 82 °F (at 4:53 PM)
Minimum temperature yesterday: 64 °F (at 4:53 AM)
Average temperature yesterday: 69 °F

Past Weeks' High & Low Weather Summary

 TemperatureHumidityPressure
High101 °F (Jun 30, 4:53 PM)94% (Jul 5, 4:53 AM)30.01 "Hg (Jul 5, 4:53 AM)
Low61 °F (Jun 23, 2:53 AM)5% (Jun 21, 4:53 PM)29.66 "Hg (Jul 3, 6:53 PM)
Average81 °F29%29.83 "Hg
* Reported Jun 21 3:53 AM — Jul 6 3:53 AM, Grand Junction, Weather by CustomWeather, © 2015

Note: Actual official high and low records may vary slightly from our data, if they occured in-between our weather recording intervals... More about our weather records

Advertising

Grand Junction weather history for previous 24 hours

 ConditionsComfort  
Time TempWeatherWind HumidityBarometerVisibility
3:53 AM
Mon, Jul 6
61 °FClear.8 mph93%29.93 "Hg10 mi
2:53 AM62 °FClear.6 mph90%29.92 "Hg10 mi
1:53 AM65 °FClear.3 mph81%29.92 "Hg10 mi
12:53 AM66 °FClear.10 mph78%29.92 "Hg10 mi
11:53 PM
Sun, Jul 5
66 °FClear.10 mph78%29.93 "Hg10 mi
10:53 PM65 °FClear.8 mph81%29.93 "Hg10 mi
9:53 PM65 °FClear.12 mph81%29.92 "Hg10 mi
8:53 PM66 °FSunny.12 mph87%29.90 "Hg10 mi
7:53 PM70 °FSunny.8 mph71%29.88 "Hg10 mi
6:53 PM69 °FPassing clouds.10 mph81%29.87 "Hg10 mi
5:53 PM74 °FPartly sunny.20 mph52%29.88 "Hg10 mi
4:53 PM82 °FScattered clouds.10 mph43%29.84 "Hg10 mi
3:53 PM80 °FScattered clouds.8 mph49%29.85 "Hg10 mi
2:53 PM81 °FOvercast.10 mph47%29.86 "Hg10 mi
1:53 PM75 °FSunny.5 mph58%29.89 "Hg10 mi
12:53 PM73 °FPartly sunny.6 mph62%29.91 "Hg10 mi
11:53 AM71 °FMore clouds than sun.9 mph66%29.93 "Hg10 mi
10:53 AM72 °FMostly cloudy.3 mph66%29.90 "Hg10 mi
9:53 AM66 °FOvercast.6 mph87%29.92 "Hg10 mi
8:53 AM67 °FOvercast.7 mph85%29.91 "Hg10 mi
7:53 AM66 °FMore clouds than sun.3 mph87%29.90 "Hg10 mi
6:53 AM64 °FPassing clouds.6 mph94%29.89 "Hg10 mi
5:53 AM64 °FPassing clouds.7 mph94%29.87 "Hg10 mi
Weather by CustomWeather, © 2015

See weather overviewHow to use our weather pages